Flag for U.S.A. Weather past 2 weeks in Worcester, Massachusetts, U.S.A.

Now
72 °F

Sunny.


Feels Like: 77 °F
Forecast: 56 / 80 °F
Wind: 10 mph from West

Location: Worcester Regional Airport

Current Time: Aug 29, 2015 at 12:54:49 PM

Latest Report: Aug 29, 2015 at 11:54 AM


Visibility: 10 mi

Pressure: 30.20 "Hg

Humidity: 49%

Dew point: 52 °F

Location of WorcesterLocation

Historic Weather in Worcester — Graph

°F

Worcester temperature yesterday

Maximum temperature yesterday: 74 °F (at 4:54 PM)
Minimum temperature yesterday: 57 °F (at 5:54 AM)
Average temperature yesterday: 65 °F

Past Weeks' High & Low Weather Summary

 TemperatureHumidityPressure
High86 °F (Aug 17, 3:54 PM)100% (Aug 24, 6:04 AM)30.22 "Hg (Aug 24, 6:04 AM)
Low57 °F (Aug 28, 5:54 AM)42% (Aug 14, 1:54 PM)29.85 "Hg (Aug 25, 5:54 PM)
Average71 °F75%30.05 "Hg
* Reported Aug 14 11:54 AM — Aug 29 11:54 AM, Worcester, Weather by CustomWeather, © 2015

Note: Actual official high and low records may vary slightly from our data, if they occured in-between our weather recording intervals... More about our weather records

Advertising

Worcester weather history for previous 24 hours

 ConditionsComfort  
Time TempWeatherWind HumidityBarometerVisibility
11:54 AM
Sat, Aug 29
72 °FSunny.10 mph49%30.20 "Hg10 mi
10:54 AM70 °FSunny.9 mph57%30.22 "Hg10 mi
9:54 AM69 °FSunny.10 mph57%30.22 "Hg10 mi
8:54 AM66 °FSunny.9 mph63%30.22 "Hg10 mi
7:54 AM62 °FSunny.7 mph73%30.21 "Hg10 mi
6:54 AM59 °FClear.7 mph78%30.20 "Hg10 mi
5:54 AM59 °FClear.7 mph75%30.19 "Hg10 mi
4:54 AM58 °FClear.6 mph78%30.18 "Hg10 mi
2:54 AM59 °FClear.7 mph78%30.19 "Hg10 mi
1:54 AM61 °FClear.9 mph72%30.19 "Hg10 mi
12:54 AM61 °FClear.8 mph75%30.20 "Hg10 mi
11:54 PM
Fri, Aug 28
61 °FClear.9 mph78%30.20 "Hg10 mi
10:54 PM62 °FClear.8 mph73%30.20 "Hg10 mi
9:54 PM64 °FClear.7 mph68%30.19 "Hg10 mi
8:54 PM65 °FClear.6 mph66%30.18 "Hg10 mi
7:54 PM66 °FSunny.7 mph63%30.16 "Hg10 mi
6:54 PM70 °FSunny.5 mph57%30.15 "Hg10 mi
5:54 PM73 °FSunny.5 mph46%30.14 "Hg10 mi
4:54 PM74 °FSunny.6 mph45%30.13 "Hg10 mi
3:54 PM72 °FScattered clouds.7 mph49%30.14 "Hg10 mi
2:54 PM73 °FMore clouds than sun.8 mph50%30.15 "Hg10 mi
1:54 PM73 °FPassing clouds.9 mph48%30.16 "Hg10 mi
12:54 PM70 °FMostly cloudy.6 mph53%30.17 "Hg10 mi
Weather by CustomWeather, © 2015

See weather overviewHow to use our weather pages